Location: Bruch
(44.2051°N, 0.4120°E)
Time: 10:11:01
(UTC+00:00)

USA 238 - Pass Details

Date: 29 November 2020
Orbit: 996 x 1216 km, 63.4° (Epoch: 22 January)

Event Time Altitude Azimuth Distance (km) Brightness Sun altitude
Exits shadow 04:46:00 36° 228° (SW) 1,776 4.5 -25.5°
Drops below altitude 10° 04:51:48 10° 181° (S) 3,140 6.2 -24.5°
Sets 04:54:47 0° 174° (S) 4,112 6.9 -24.0°
